METEOR 2-5 DEB, 28973

Orbit data source: Space-Track

METEOR 2-5 DEB, 28973 is space debris in LEO originally from a launch on Wed, 31 Oct 1979 UTC launched from the Plesetsk Missile And Space Complex (PKMTR). Debris objects in space refer to the collection of defunct objects orbiting the Earth. Examples of debris include non-operational satellites, rocket bodies, and fragments generated from explosions, collisions, or faulty payload assembly.

Loading next visibility...
Identifier
28973, 1979-095J
Orbit
LEO
Country
Flag of CISCIS
Related business
Manufacturer
Unknown
Mission
Spacecraft
Bus & Motor
Unknown
Mass
Unknown
Launch date (UTC)
1979-10-31 (47 years ago)
Launch vehicle
Unknown
Launch site
Plesetsk Missile And Space Complex (PKMTR)
Object type
Payload
Rocket body
Debris
Shape & HBR
Unknown shape, 0.1 m
Radar Cross Section
Small (<0.1 m²)

Expand to show TLE details & history
Last TLE update: 19 hours ago

TLE from 19 hours ago
0 METEOR 2-5 DEB
1 28973U 79095J   26123.30460735  .00007675  00000-0  21340-2 0  9998
2 28973  81.1929 137.0698 0007341 212.6491 147.4247 14.46355318100599
Epoch: 2026-05-03T07:18Z
TLE epoch observation values (Epoch: 2026-05-03T07:18:38.075Z)
Latitude
0.00002°
Longitude
166.20108°
Altitude
744.929 km
Speed
7.48 km/s
True Right ascension
09h 08m 16s
True Declination
0° 00' 00"
Sunlit
Object was in daylight at epoch
Visualization orbit readout
Latitude
Unknown
Longitude
Unknown
Altitude
Unknown
Speed
Unknown
Apparent Right ascension
Unknown
Apparent Declination
Unknown
Sunlit
N/A
Visualization observer readout
Local Sidereal Time
10:28:56
Azimuth
Unknown
Elevation
Unknown
Doppler factor
Unknown
Orbital elements
Apogee altitude
739.927 km
Perigee altitude
729.484 km
Semi-major axis
7,112.843 km
Eccentricity
0.00073
Inclination
81.1929°
RAAN
137.0698°
Arg. of periapsis
212.6491°
True anomaly
147.46996°
Mean anomaly
147.4247°
Eccentric anomaly
147.44733°
Mean motion
3.61808 °/min
Orbital period
99.5 mins
BSTAR
0.002134
Loading maneuver chart data...
Computing Atmospheric mass density...

Documentation

Showing up to 5 results
|